H1 CPF 2 NER 2022 11 27 9 331 01 glonass128 H2 1106401 9128 37867 2022 11 27 0 0 0 2022 11 30 23 45 0 900 1 1 0 0 0 1 H9 10 0 59910 0.00000 0 15823875.160 20041025.921 677110.859 10 0 59910 900.00000 0 15759985.434 19732201.832 3870420.787 10 0 59910 1800.00000 0 15400477.549 19154064.420 6988900.308 10 0 59910 2700.00000 0 14718747.888 18356088.618 9972309.160 10 0 59910 3600.00000 0 13699905.870 17393742.451 12763052.516 10 0 59910 4500.00000 0 12341620.430 16326054.339 15307273.538 10 0 59910 5400.00000 0 10654453.817 15213053.398 17555873.076 10 0 59910 6300.00000 0 8661668.662 14113188.648 19465438.716 10 0 59910 7200.00000 0 6398515.649 13080833.466 20999067.001 10 0 59910 8100.00000 0 3911029.925 12163977.882 22127064.684 10 0 59910 9000.00000 0 1254384.072 11402203.535 22827516.811 10 0 59910 9900.00000 0 -1509136.591 10825024.630 23086711.465 10 0 59910 10800.00000 0 -4312455.507 10450663.496 22899413.283 10 0 59910 11700.00000 0 -7086230.083 10285311.896 22268980.048 10 0 59910 12600.00000 0 -9761478.794 10322909.690 21207319.063 10 0 59910 13500.00000 0 -12272203.834 10545451.497 19734682.490 10 0 59910 14400.00000 0 -14557902.337 10923810.417 17879303.485 10 0 59910 15300.00000 0 -16565862.819 11419046.512 15676877.732 10 0 59910 16200.00000 0 -18253151.533 11984147.258 13169897.909 10 0 59910 17100.00000 0 -19588205.293 12566128.764 10406851.556 10 0 59910 18000.00000 0 -20551962.929 13108410.556 7441295.939 10 0 59910 18900.00000 0 -21138486.284 13553364.360 4330826.421 10 0 59910 19800.00000 0 -21355042.853 13844928.880 1135957.574 10 0 59910 20700.00000 0 -21221644.794 13931178.736 -2081061.074 10 0 59910 21600.00000 0 -20770062.426 13766736.753 -5257470.868 10 0 59910 22500.00000 0 -20042353.088 13314924.739 -8331246.123 10 0 59910 23400.00000 0 -19088967.512 12549558.567 -11242326.177 10 0 59910 24300.00000 0 -17966514.537 11456308.441 -13933811.171 10 0 59910 25200.00000 0 -16735280.081 10033563.830 -16353095.820 10 0 59910 26100.00000 0 -15456607.245 8292764.131 -18452916.807 10 0 59910 27000.00000 0 -14190250.428 6258179.301 -20192291.454 10 0 59910 27900.00000 0 -12991817.345 3966148.658 -21537328.024 10 0 59910 28800.00000 0 -11910408.733 1463809.616 -22461890.932 10 0 59910 29700.00000 0 -10986556.536 -1192629.912 -22948107.737 10 0 59910 30600.00000 0 -10250547.959 -3940002.288 -22986708.391 10 0 59910 31500.00000 0 -9721205.689 -6710584.602 -22577190.971 10 0 59910 32400.00000 0 -9405174.519 -9434695.320 -21727811.981 10 0 59910 33300.00000 0 -9296742.556 -12043373.924 -20455402.924 10 0 59910 34200.00000 0 -9378202.204 -14471031.295 -18785018.443 10 0 59910 35100.00000 0 -9620733.052 -16657960.574 -16749424.627 10 0 59910 36000.00000 0 -9985766.743 -18552604.676 -14388439.079 10 0 59910 36900.00000 0 -10426773.793 -20113487.380 -11748137.160 10 0 59910 37800.00000 0 -10891394.885 -21310729.599 -8879941.135 10 0 59910 38700.00000 0 -11323825.168 -22127090.175 -5839610.923 10 0 59910 39600.00000 0 -11667350.059 -22558490.579 -2686156.853 10 0 59910 40500.00000 0 -11866925.316 -22614004.613 519304.179 10 0 59910 41400.00000 0 -11871692.906 -22315316.354 3714726.985 10 0 59910 42300.00000 0 -11637327.482 -21695671.458 6838328.335 10 0 59910 43200.00000 0 -11128115.808 -20798367.590 9829766.993 10 0 59910 44100.00000 0 -10318682.881 -19674848.289 12631291.933 10 0 59910 45000.00000 0 -9195293.414 -18382480.439 15188837.976 10 0 59910 45900.00000 0 -7756674.840 -16982107.880 17453049.487 10 0 59910 46800.00000 0 -6014327.588 -15535482.387 19380214.246 10 0 59910 47700.00000 0 -3992309.253 -14102677.765 20933091.251 10 0 59910 48600.00000 0 -1726500.417 -12739593.199 22081618.217 10 0 59910 49500.00000 0 736619.267 -11495648.089 22803486.453 10 0 59910 50400.00000 0 3341636.367 -10411762.902 23084572.873 10 0 59910 51300.00000 0 6026244.219 -9518708.964 22919221.112 10 0 59910 52200.00000 0 8723577.327 -8835895.394 22310365.951 10 0 59910 53100.00000 0 11364745.859 -8370643.855 21269497.626 10 0 59910 54000.00000 0 13881467.981 -8117982.157 19816465.095 10 0 59910 54900.00000 0 16208692.967 -8060966.664 17979119.920 10 0 59910 55800.00000 0 18287107.499 -8171521.817 15792805.273 10 0 59910 56700.00000 0 20065421.439 -8411763.453 13299697.405 10 0 59910 57600.00000 0 21502337.479 -8735752.180 10548009.946 10 0 59910 58500.00000 0 22568121.234 -9091604.462 7591074.444 10 0 59910 59400.00000 0 23245704.384 -9423873.216 4486313.548 10 0 59910 60300.00000 0 23531272.563 -9676097.373 1294125.912 10 0 59910 61200.00000 0 23434311.190 -9793411.777 -1923295.371 10 0 59910 62100.00000 0 22977105.507 -9725105.164 -5103187.147 10 0 59910 63000.00000 0 22193714.615 -9427015.452 -8183458.097 10 0 59910 63900.00000 0 21128462.189 -8863657.933 -11103921.922 10 0 59910 64800.00000 0 19834007.779 -8009993.012 -13807495.544 10 0 59910 65700.00000 0 18369081.082 -6852755.591 -16241336.565 10 0 59910 66600.00000 0 16795976.412 -5391287.100 -18357895.489 10 0 59910 67500.00000 0 15177915.068 -3637832.873 -20115860.294 10 0 59910 68400.00000 0 13576388.913 -1617290.810 -21480973.493 10 0 59910 69300.00000 0 12048599.031 633578.798 -22426704.838 10 0 59910 70200.00000 0 10645098.790 3067449.072 -22934766.349 10 0 59910 71100.00000 0 9407741.201 5628173.131 -22995459.948 10 0 59910 72000.00000 0 8368016.948 8252907.263 -22607851.768 10 0 59910 72900.00000 0 7545852.001 10874520.813 -21779771.025 10 0 59910 73800.00000 0 6948913.638 13424191.105 -20527634.983 10 0 59910 74700.00000 0 6572451.744 15834074.226 -18876105.154 10 0 59910 75600.00000 0 6399679.153 18039940.022 -16857583.177 10 0 59910 76500.00000 0 6402672.013 19983661.689 -14511557.809 10 0 59910 77400.00000 0 6543749.284 21615456.985 -11883817.355 10 0 59910 78300.00000 0 6777270.504 22895789.134 -9025544.138 10 0 59910 79200.00000 0 7051773.850 23796850.185 -5992309.621 10 0 59910 80100.00000 0 7312362.726 24303567.324 -2842990.513 10 0 59910 81000.00000 0 7503239.337 24414092.801 361372.751 10 0 59910 81900.00000 0 7570278.186 24139759.690 3558753.091 10 0 59910 82800.00000 0 7463531.402 23504507.737 6687326.912 10 0 59910 83700.00000 0 7139561.244 22543805.288 9686655.104 10 0 59910 84600.00000 0 6563502.675 21303113.753 12498833.291 10 0 59910 85500.00000 0 5710770.533 19835959.383 15069590.487 10 0 59911 0.00000 0 4568340.639 18201692.959 17349316.576 10 0 59911 900.00000 0 3135551.021 16463029.140 19294001.781 10 0 59911 1800.00000 0 1424391.263 14683468.914 20866068.822 10 0 59911 2700.00000 0 -540735.008 12924707.811 22035087.503 10 0 59911 3600.00000 0 -2723764.693 11244137.951 22778356.170 10 0 59911 4500.00000 0 -5078218.263 9692545.128 23081340.951 10 0 59911 5400.00000 0 -7548882.346 8312095.268 22937964.470 10 0 59911 6300.00000 0 -10073865.192 7134692.868 22350738.075 10 0 59911 7200.00000 0 -12586942.846 6180779.294 21330734.066 10 0 59911 8100.00000 0 -15020101.701 5458621.167 19897396.867 10 0 59911 9000.00000 0 -17306174.402 4964119.279 18078194.674 10 0 59911 9900.00000 0 -19381461.257 4681147.389 15908115.950 10 0 59911 10800.00000 0 -21188229.043 4582408.309 13429017.973 10 0 59911 11700.00000 0 -22676983.039 4630773.018 10688837.616 10 0 59911 12600.00000 0 -23808416.453 4781048.040 7740677.674 10 0 59911 13500.00000 0 -24554954.086 4982097.578 4641784.927 10 0 59911 14400.00000 0 -24901823.369 5179231.184 1452438.938 10 0 59911 15300.00000 0 -24847605.430 5316755.557 -1765226.791 10 0 59911 16200.00000 0 -24404240.764 5340581.114 -4948447.674 10 0 59911 17100.00000 0 -23596487.433 5200770.824 -8035069.721 10 0 59911 18000.00000 0 -22460853.390 4853920.589 -10964783.814 10 0 59911 18900.00000 0 -21044047.529 4265267.239 -13680326.286 10 0 59911 19800.00000 0 -19401015.129 3410431.684 -16128619.999 10 0 59911 20700.00000 0 -17592641.668 2276720.559 -18261831.338 10 0 59911 21600.00000 0 -15683223.389 863928.834 -20038320.589 10 0 59911 22500.00000 0 -13737813.071 -815392.362 -21423465.712 10 0 59911 23400.00000 0 -11819554.649 -2736215.039 -22390342.505 10 0 59911 24300.00000 0 -9987120.340 -4861849.433 -22920247.652 10 0 59911 25200.00000 0 -8292358.951 -7145260.377 -23003054.772 10 0 59911 26100.00000 0 -6778254.475 -9530828.905 -22637397.336 10 0 59911 27000.00000 0 -5477280.015 -11956484.251 -21830676.154 10 0 59911 27900.00000 0 -4410214.663 -14356115.922 -20598892.795 10 0 59911 28800.00000 0 -3585470.820 -16662163.921 -18966313.900 10 0 59911 29700.00000 0 -2998957.331 -18808278.265 -16964974.678 10 0 59911 30600.00000 0 -2634480.969 -20731936.582 -14634032.901 10 0 59911 31500.00000 0 -2464666.109 -22376910.776 -12018987.561 10 0 59911 32400.00000 0 -2452350.668 -23695480.812 -9170778.720 10 0 59911 33300.00000 0 -2552396.754 -24650304.681 -6144787.039 10 0 59911 34200.00000 0 -2713837.517 -25215868.411 -2999753.291 10 0 59911 35100.00000 0 -2882268.164 -25379457.856 203360.870 10 0 59911 36000.00000 0 -3002379.520 -25141614.057 3402548.757 10 0 59911 36900.00000 0 -3020527.286 -24516055.437 6535948.677 10 0 59911 37800.00000 0 -2887229.214 -23529072.081 9543025.904 10 0 59911 38700.00000 0 -2559485.978 -22218418.867 12365724.932 10 0 59911 39600.00000 0 -2002829.286 -20631754.495 14949571.143 10 0 59911 40500.00000 0 -1193012.284 -18824691.662 17244702.382 10 0 59911 41400.00000 0 -117272.122 -16858539.004 19206812.410 10 0 59911 42300.00000 0 1224887.830 -14797827.624 20797989.811 10 0 59911 43200.00000 0 2821429.215 -12707723.332 21987437.924 10 0 59911 44100.00000 0 4648035.715 -10651430.079 22752063.271 10 0 59911 45000.00000 0 6668886.981 -8687690.409 23076922.038 10 0 59911 45900.00000 0 8837919.789 -6868484.717 22955516.360 10 0 59911 46800.00000 0 11100526.985 -5237023.328 22389934.360 10 0 59911 47700.00000 0 13395626.763 -3826113.816 21390830.313 10 0 59911 48600.00000 0 15658019.450 -2656971.108 19977243.729 10 0 59911 49500.00000 0 17820936.637 -1738520.162 18176258.775 10 0 59911 50400.00000 0 19818678.681 -1067221.240 16022508.237 10 0 59911 51300.00000 0 21589232.116 -627426.345 13557529.118 10 0 59911 52200.00000 0 23076758.173 -392253.377 10828979.891 10 0 59911 53100.00000 0 24233847.802 -324942.802 7889732.572 10 0 59911 54000.00000 0 25023447.432 -380640.878 4796855.674 10 0 59911 54900.00000 0 25420372.593 -508534.813 1610506.899 10 0 59911 55800.00000 0 25412343.336 -654249.588 -1607242.905 10 0 59911 56700.00000 0 25000495.308 -762404.098 -4793630.990 10 0 59911 57600.00000 0 24199342.662 -779216.647 -7886444.058 10 0 59911 58500.00000 0 23036192.482 -655047.012 -10825253.493 10 0 59911 59400.00000 0 21550034.338 -346764.489 -13552618.199 10 0 59911 60300.00000 0 19789951.419 180161.512 -16015229.218 10 0 59911 61200.00000 0 17813120.731 949939.825 -18164971.427 10 0 59911 62100.00000 0 15682487.730 1975180.323 -19959879.702 10 0 59911 63000.00000 0 13464214.801 3256117.284 -21364969.400 10 0 59911 63900.00000 0 11225012.726 4780367.430 -22352923.957 10 0 59911 64800.00000 0 9029468.817 6523233.576 -22904625.969 10 0 59911 65700.00000 0 6937485.070 8448541.074 -23009521.629 10 0 59911 66600.00000 0 5001934.429 10509971.261 -22665812.236 10 0 59911 67500.00000 0 3266633.122 12652834.944 -21880470.273 10 0 59911 68400.00000 0 1764712.956 14816210.383 -20669081.268 10 0 59911 69300.00000 0 517459.874 16935354.972 -19055516.215 10 0 59911 70200.00000 0 -466335.208 18944288.688 -17071442.697 10 0 59911 71100.00000 0 -1190489.256 20778440.682 -14755685.877 10 0 59911 72000.00000 0 -1671002.359 22377248.118 -12153453.429 10 0 59911 72900.00000 0 -1935116.696 23686599.106 -9315440.771 10 0 59911 73800.00000 0 -2019902.089 24661018.580 -6296835.068 10 0 59911 74700.00000 0 -1970430.377 25265507.184 -3156238.173 10 0 59911 75600.00000 0 -1837617.676 25476958.191 45470.208 10 0 59911 76500.00000 0 -1675826.816 25285095.286 3246307.079 10 0 59911 77400.00000 0 -1540331.584 24692894.099 6384375.985 10 0 59911 78300.00000 0 -1484749.514 23716471.775 9399049.866 10 0 59911 79200.00000 0 -1558550.689 22384450.689 12232125.252 10 0 59911 80100.00000 0 -1804746.294 20736823.789 14828926.857 10 0 59911 81000.00000 0 -2257852.888 18823369.168 17139343.038 10 0 59911 81900.00000 0 -2942216.806 16701679.389 19118773.963 10 0 59911 82800.00000 0 -3870768.183 14434886.480 20728976.023 10 0 59911 83700.00000 0 -5044256.607 12089175.451 21938787.925 10 0 59911 84600.00000 0 -6451000.944 9731187.415 22724725.848 10 0 59911 85500.00000 0 -8067165.050 7425417.862 23071437.117 10 0 59912 0.00000 0 -9857549.800 5231715.931 22972004.046 10 0 59912 900.00000 0 -11776872.090 3202985.242 22428091.690 10 0 59912 1800.00000 0 -13771478.136 1383183.198 21449935.944 10 0 59912 2700.00000 0 -15781426.105 -194302.980 20056170.524 10 0 59912 3600.00000 0 -17742851.997 -1507833.223 18273494.146 10 0 59912 4500.00000 0 -19590523.549 -2548196.250 16136181.983 10 0 59912 5400.00000 0 -21260477.272 -3318766.294 13685448.359 10 0 59912 6300.00000 0 -22692629.322 -3835127.061 10968670.538 10 0 59912 7200.00000 0 -23833250.841 -4124177.209 8038486.638 10 0 59912 8100.00000 0 -24637202.926 -4222753.715 4951783.564 10 0 59912 9000.00000 0 -25069835.597 -4175830.260 1768593.696 10 0 59912 9900.00000 0 -25108468.376 -4034366.375 -1449078.264 10 0 59912 10800.00000 0 -24743387.470 -3852898.818 -4638474.879 10 0 59912 11700.00000 0 -23978314.782 -3686978.401 -7737326.917 10 0 59912 12600.00000 0 -22830326.625 -3590562.836 -10685089.504 10 0 59912 13500.00000 0 -21329223.800 -3613478.679 -13424147.164 10 0 59912 14400.00000 0 -19516378.564 -3799062.792 -15900961.892 10 0 59912 15300.00000 0 -17443106.918 -4182086.221 -18067139.492 10 0 59912 16200.00000 0 -15168635.333 -4787051.043 -19880391.423 10 0 59912 17100.00000 0 -12757748.548 -5626934.545 -21305371.910 10 0 59912 18000.00000 0 -10278218.895 -6702435.347 -22314372.948 10 0 59912 18900.00000 0 -7798126.562 -8001754.219 -22887863.363 10 0 59912 19800.00000 0 -5383184.489 -9500918.996 -23014861.682 10 0 59912 20700.00000 0 -3094180.894 -11164639.414 -22693136.271 10 0 59912 21600.00000 0 -984646.585 -12947654.957 -21929230.096 10 0 59912 22500.00000 0 901155.991 -14796517.845 -20738311.094 10 0 59912 23400.00000 0 2529839.279 -16651734.884 -19143852.783 10 0 59912 24300.00000 0 3880027.840 -18450177.119 -17177153.075 10 0 59912 25200.00000 0 4942981.611 -20127655.272 -14876702.342 10 0 59912 26100.00000 0 5722682.457 -21621552.463 -12287414.632 10 0 59912 27000.00000 0 6235384.005 -22873403.911 -9459738.352 10 0 59912 27900.00000 0 6508647.192 -23831316.061 -6448664.755 10 0 59912 28800.00000 0 6579905.232 -24452124.836 -3312654.347 10 0 59912 29700.00000 0 6494621.023 -24703204.128 -112502.454 10 0 59912 30600.00000 0 6304116.512 -24563850.566 3089834.036 10 0 59912 31500.00000 0 6063166.532 -24026188.448 6232426.282 10 0 59912 32400.00000 0 5827458.849 -23095558.790 9254557.221 10 0 59912 33300.00000 0 5651026.997 -21790377.653 12097877.668 10 0 59912 34200.00000 0 5583763.051 -20141470.677 14707513.822 10 0 59912 35100.00000 0 5669113.695 -18190911.923 17033106.556 10 0 59912 36000.00000 0 5942055.091 -15990415.060 19029764.265 10 0 59912 36900.00000 0 6427430.372 -13599342.784 20658912.739 10 0 59912 37800.00000 0 7138718.763 -11082415.566 21889027.364 10 0 59912 38700.00000 0 8077287.796 -8507212.597 22696235.004 10 0 59912 39600.00000 0 9232160.538 -5941566.234 23064774.835 10 0 59912 40500.00000 0 10580309.017 -3450955.400 22987309.700 10 0 59912 41400.00000 0 12087463.795 -1096003.621 22465081.725 10 0 59912 42300.00000 0 13709408.562 1069816.405 21507908.273 10 0 59912 43200.00000 0 15393708.797 3002177.879 20134016.831 10 0 59912 44100.00000 0 17081805.380 4667512.436 18369719.966 10 0 59912 45000.00000 0 18711388.445 6044172.930 16248934.284 10 0 59912 45900.00000 0 20218954.394 7123097.455 13812550.204 10 0 59912 46800.00000 0 21542440.434 7907945.682 11107662.273 10 0 59912 47700.00000 0 22623826.549 8414700.434 8186672.889 10 0 59912 48600.00000 0 23411595.114 8670749.851 5106285.226 10 0 59912 49500.00000 0 23862943.216 8713487.673 1926403.921 10 0 59912 50400.00000 0 23945652.271 8588490.004 -1291035.159 10 0 59912 51300.00000 0 23639533.398 8347345.656 -4483282.753 10 0 59912 52200.00000 0 22937384.678 8045232.668 -7588016.667 10 0 59912 53100.00000 0 21845417.118 7738345.137 -10544578.726 10 0 59912 54000.00000 0 20383129.043 7481281.603 -13295181.927 10 0 59912 54900.00000 0 18582632.493 7324508.268 -15786061.899 10 0 59912 55800.00000 0 16487459.203 7312007.307 -17968547.812 10 0 59912 56700.00000 0 14150896.353 7479212.568 -19800029.916 10 0 59912 57600.00000 0 11633922.675 7851322.359 -21244803.264 10 0 59912 58500.00000 0 9002832.835 8442062.390 -22274770.115 10 0 59912 59400.00000 0 6326651.140 9252952.204 -22869987.001 10 0 59912 60300.00000 0 3674444.262 10273106.369 -23019045.979 10 0 59912 61200.00000 0 1112646.621 11479578.402 -22719283.381 10 0 59912 62100.00000 0 -1297489.239 12838231.985 -21976813.191 10 0 59912 63000.00000 0 -3502210.962 14305101.458 -20806385.900 10 0 59912 63900.00000 0 -5457257.429 15828182.753 -19231077.269 10 0 59912 64800.00000 0 -7129441.240 17349577.989 -17281814.834 10 0 59912 65700.00000 0 -8497759.069 18807902.271 -14996753.032 10 0 59912 66600.00000 0 -9553986.496 20140850.613 -12420510.759 10 0 59912 67500.00000 0 -10302736.010 21287816.747 -9603287.521 10 0 59912 68400.00000 0 -10760979.308 22192453.942 -6599876.450 10 0 59912 69300.00000 0 -10957057.389 22805070.937 -3468594.225 10 0 59912 70200.00000 0 -10929223.043 23084763.551 -270149.088 10 0 59912 71100.00000 0 -10723779.468 23001194.011 2933531.062 10 0 59912 72000.00000 0 -10392894.909 22535945.009 6080488.017 10 0 59912 72900.00000 0 -9992186.184 21683393.450 9109917.805 10 0 59912 73800.00000 0 -9578172.812 20451068.673 11963328.658 10 0 59912 74700.00000 0 -9205708.201 18859481.262 14585651.358 10 0 59912 75600.00000 0 -8925494.778 16941429.980 16926282.306 10 0 59912 76500.00000 0 -8781786.031 14740815.524 18940041.011 10 0 59912 77400.00000 0 -8810370.489 12311009.552 20588025.339 10 0 59912 78300.00000 0 -9036921.001 9712845.168 21838349.800 10 0 59912 79200.00000 0 -9475777.777 7012310.090 22666754.062 10 0 59912 80100.00000 0 -10129216.098 4278035.673 23057070.905 10 0 59912 81000.00000 0 -10987230.073 1578683.139 23001545.056 10 0 59912 81900.00000 0 -12027842.985 -1019667.419 22500996.528 10 0 59912 82800.00000 0 -13217933.446 -3456019.245 21564824.442 10 0 59912 83700.00000 0 -14514545.476 -5676750.451 20210849.782 10 0 59912 84600.00000 0 -15866630.652 -7637600.925 18464998.113 10 0 59912 85500.00000 0 -17217152.181 -9305272.306 16360826.052 10 0 59913 0.00000 0 -18505465.139 -10658574.048 13938898.387 10 0 59913 900.00000 0 -19669875.446 -11689067.516 11246024.068 10 0 59913 1800.00000 0 -20650269.337 -12401178.056 8334367.155 10 0 59913 2700.00000 0 -21390704.938 -12811771.348 5260443.935 10 0 59913 3600.00000 0 -21841854.044 -12949208.605 2084027.930 10 0 59913 4500.00000 0 -21963189.893 -12851920.181 -1133017.345 10 0 59913 5400.00000 0 -21724825.910 -12566557.291 -4327954.399 10 0 59913 6300.00000 0 -21108924.823 -12145800.259 -7438411.675 10 0 59913 7200.00000 0 -20110615.578 -11645917.081 -10403621.246 10 0 59913 8100.00000 0 -18738376.615 -11124177.481 -13165628.011 10 0 59913 9000.00000 0 -17013867.036 -10636234.239 -15670444.452 10 0 59913 9900.00000 0 -14971211.311 -10233585.339 -17869126.034 10 0 59913 10800.00000 0 -12655766.926 -9961226.942 -19718744.313 10 0 59913 11700.00000 0 -10122426.829 -9855598.913 -21183237.184 10 0 59913 12600.00000 0 -7433528.746 -9942911.596 -22234118.618 10 0 59913 13500.00000 0 -4656460.147 -10237925.752 -22851033.680 10 0 59913 14400.00000 0 -1861060.458 -10743237.603 -23022148.180 10 0 59913 15300.00000 0 883069.575 -11449098.826 -22744366.072 10 0 59913 16200.00000 0 3509238.115 -12333778.114 -22023371.537 10 0 59913 17100.00000 0 5956200.383 -13364447.606 -20873496.390 10 0 59913 18000.00000 0 8170459.144 -14498555.056 -19317417.079 10 0 59913 18900.00000 0 10108232.877 -15685622.115 -17385688.941 10 0 59913 19800.00000 0 11737011.504 -16869391.335 -15116128.435 10 0 59913 20700.00000 0 13036637.333 -17990230.070 -12553057.055 10 0 59913 21600.00000 0 13999869.316 -18987689.241 -9746422.974 10 0 59913 22500.00000 0 14632410.471 -19803108.867 -6750818.608 10 0 59913 23400.00000 0 14952400.791 -20382160.953 -3624414.082 10 0 59913 24300.00000 0 14989400.207 -20677223.508 -427827.724 10 0 59913 25200.00000 0 14782907.051 -20649487.044 2777044.419 10 0 59913 26100.00000 0 14380476.369 -20270706.493 5928217.616 10 0 59913 27000.00000 0 13835518.477 -19524526.517 8964803.744 10 0 59913 27900.00000 0 13204870.804 -18407326.043 11828171.056 10 0 59913 28800.00000 0 12546244.772 -16928547.728 14463057.334 10 0 59913 29700.00000 0 11915654.047 -15110499.144 16818616.675 10 0 59913 30600.00000 0 11364930.750 -12987633.863 18849381.594 10 0 59913 31500.00000 0 10939432.232 -10605341.652 20516123.627 10 0 59913 32400.00000 0 10676033.018 -8018296.584 21786597.673 10 0 59913 33300.00000 0 10601484.785 -5288429.523 22636157.139 10 0 59913 34200.00000 0 10731212.367 -2482606.566 23048229.007 10 0 59913 35100.00000 0 11068596.118 329893.217 23014640.151 10 0 59913 36000.00000 0 11604771.474 3079999.168 22535788.412 10 0 59913 36900.00000 0 12318955.550 5701463.521 21620654.308 10 0 59913 37800.00000 0 13179289.276 8133362.846 20286651.684 10 0 59913 38700.00000 0 14144162.328 10322384.269 18559318.197 10 0 59913 39600.00000 0 15163968.010 12224802.210 16471849.320 10 0 59913 40500.00000 0 16183216.967 13808063.439 14064482.341 10 0 59913 41400.00000 0 17142922.994 15051913.728 11383739.841 10 0 59913 42300.00000 0 17983161.873 15949017.709 8481545.213 10 0 59913 43200.00000 0 18645695.887 16505044.518 5414225.709 10 0 59913 44100.00000 0 19076552.763 16738214.050 2241421.349 10 0 59913 45000.00000 0 19228448.632 16678321.575 -975079.268 10 0 59913 45900.00000 0 19062950.344 16365280.977 -4172553.116 10 0 59913 46800.00000 0 18552282.878 15847247.947 -7288582.008 10 0 59913 47700.00000 0 17680702.286 15178402.999 -10262290.965 10 0 59913 48600.00000 0 16445373.141 14416489.384 -13035559.369 10 0 59913 49500.00000 0 14856710.657 13620212.003 -15554178.964 10 0 59913 50400.00000 0 12938171.043 12846609.736 -17768933.720 10 0 59913 51300.00000 0 10725497.525 12148514.831 -19636578.502 10 0 59913 52200.00000 0 8265453.209 11572209.146 -21120695.846 10 0 59913 53100.00000 0 5614094.288 11155378.266 -22192413.035 10 0 59913 54000.00000 0 2834656.727 10925451.230 -22830965.065 10 0 59913 54900.00000 0 -4853.938 10898396.537 -23024092.675 10 0 59913 55800.00000 0 -2834267.613 11078025.021 -22768268.339 10 0 59913 56700.00000 0 -5583939.651 11455828.019 -22068747.005 10 0 59913 57600.00000 0 -8187412.952 12011356.105 -20939441.999 10 0 59913 58500.00000 0 -10583941.065 12713120.432 -19402630.239 10 0 59913 59400.00000 0 -12720767.742 13519976.525 -17488494.220 10 0 59913 60300.00000 0 -14555069.408 14382930.086 -15234511.399 10 0 59913 61200.00000 0 -16055481.564 15247286.800 -12684704.492 10 0 59913 62100.00000 0 -17203148.189 16055054.102 -9888768.676 10 0 59913 63000.00000 0 -17992253.501 16747492.755 -6901093.743 10 0 59913 63900.00000 0 -18430017.119 17267710.416 -3779701.159 10 0 59913 64800.00000 0 -18536156.155 17563188.172 -585117.067 10 0 59913 65700.00000 0 -18341839.782 17588134.477 2620796.777 10 0 59913 66600.00000 0 -17888182.486 17305568.545 5776031.699 10 0 59913 67500.00000 0 -17224341.042 16689047.030 8819618.151 10 0 59913 68400.00000 0 -16405295.960 15723962.772 11692787.249 10 0 59913 69300.00000 0 -15489410.661 14408362.330 14340086.689 10 0 59913 70200.00000 0 -14535870.151 12753248.744 16710431.216 10 0 59913 71100.00000 0 -13602105.371 10782356.964 18758069.243 10 0 59913 72000.00000 0 -12741309.552 8531410.766 20443448.763 10 0 59913 72900.00000 0 -12000148.832 6046890.765 21733967.648 10 0 59913 73800.00000 0 -11416761.298 3384362.694 22604595.361 10 0 59913 74700.00000 0 -11019126.916 606432.877 23038355.057 10 0 59913 75600.00000 0 -10823875.823 -2219587.293 23026657.326 10 0 59913 76500.00000 0 -10835584.800 -5024214.157 22569478.962 10 0 59913 77400.00000 0 -11046592.153 -7738419.787 21675382.508 10 0 59913 78300.00000 0 -11437340.207 -10296248.843 20361374.775 10 0 59913 79200.00000 0 -11977233.058 -12637317.712 18652605.092 10 0 59913 80100.00000 0 -12625975.995 -14709093.285 16581906.830 10 0 59913 81000.00000 0 -13335342.731 -16468857.006 14189188.557 10 0 59913 81900.00000 0 -14051298.257 -17885271.952 11520684.138 10 0 59913 82800.00000 0 -14716389.554 -18939486.371 8628074.201 10 0 59913 83700.00000 0 -15272304.151 -19625725.969 5567494.322 10 0 59913 84600.00000 0 -15662488.412 -19951348.383 2398448.111 10 0 59913 85500.00000 0 -15834713.839 -19936355.834 -817353.868 99